Location: Prague
(50.0830°N, 14.4670°E)
Time: 01:46:35
(UTC+01:00)

STARLINK-1719 - Pass Details

Date: 22 September 2020
Orbit: 549 x 551 km, 53.0° (Epoch: 31 October)

Event Time Altitude Azimuth Distance (km) Brightness Sun altitude
Exits shadow 04:06:03 57° 30° (NNE) 654 4.1 -25.4°
Drops below altitude 10° 04:09:38 10° 71° (ENE) 1,827 7.2 -24.9°
Enters shadow 05:07:10 -68° 269° (W) 12,406 10.4 -16.8°
Maximum altitude 05:45:24 62° 10° (N) 624 4.0 -10.9°
